{"data":{"norad_id":65721,"intl_designator":"2025-214K","name":"GEESAT-6 09","alt_names":[],"object_type":"PAYLOAD","status":"ACTIVE","operator":null,"country":"PRC","launch_date":"2025-09-24","launch_site_code":"YSLA","launch_vehicle":null,"mission":null,"orbit_class":"UNKNOWN","rcs_meters":null,"size_class":null,"mass_kg":null,"dimensions":null,"purposes":[],"wikipedia_slug":null,"has_3d_model":false,"image_url":null,"decayed_at":null,"tle_current":{"epoch":"2026-09-20T14:58:16.683744Z","epoch_age_seconds":139159,"freshness":"FRESH","line1":"1 65721U 25214K   26263.62380421  .00000952  00000+0  14152-3 0  9991","line2":"2 65721  49.9842 226.0489 0008205 219.8586 140.1751 14.83578832 53673","mean_motion":14.83578832,"eccentricity":0.0008205,"inclination_deg":49.9842,"raan_deg":226.0489,"arg_perigee_deg":219.8586,"mean_anomaly_deg":140.1751,"bstar":0.00014152,"rev_number":5367,"period_min":97.062587369135,"perigee_km":612.30984486147,"apogee_km":623.7905880837,"semimajor_km":6996.1872164726,"source":"CELESTRAK","updated_at":"2026-09-21T09:00:15.524074Z"}}}